BAW7DY EDDF-EGLL

Flight info

Callsign BAW7DY
Flight time 1h 6m
Altitude 36000
Route OBOKA5G/25C OBOKA Z29 TORNU DCT ABNED L980 LOGAN
Aircraft B77W/H-SDE1E2E3FGHIJ2J3J4J5M1RWXY/LB1D1

Departure

Time 2026-05-06 19:19
Airport Frankfurt Main Airport (EDDF)

Arrival

Time 2026-05-06 20:25
Airport London Heathrow Airport (EGLL)
Time Latitude Longitude Altitude Speed Heading
2026-05-06 18:37 50.04648 8.56833 369 ft 0 kts 295°
2026-05-06 19:07 50.04646 8.56840 361 ft 3 kts 295°
2026-05-06 19:07 50.04636 8.56876 367 ft 4 kts 291°
2026-05-06 19:07 50.04632 8.56913 366 ft 4 kts 244°
2026-05-06 19:07 50.04649 8.56936 368 ft 4 kts 197°
2026-05-06 19:08 50.04670 8.56946 362 ft 1 kts 205°
2026-05-06 19:08 50.04663 8.56941 363 ft 0 kts 204°
2026-05-06 19:12 50.04662 8.56940 361 ft 0 kts 204°
2026-05-06 19:12 50.04658 8.56938 361 ft 1 kts 202°
2026-05-06 19:12 50.04649 8.56932 367 ft 2 kts 199°
2026-05-06 19:13 50.04635 8.56925 367 ft 2 kts 199°
2026-05-06 19:13 50.04604 8.56909 366 ft 6 kts 198°
2026-05-06 19:13 50.04563 8.56889 365 ft 6 kts 196°
2026-05-06 19:13 50.04520 8.56873 369 ft 6 kts 192°
2026-05-06 19:14 50.04462 8.56857 370 ft 11 kts 189°
2026-05-06 19:14 50.04386 8.56840 370 ft 11 kts 190°
2026-05-06 19:14 50.04310 8.56817 369 ft 13 kts 193°
2026-05-06 19:14 50.04270 8.56790 371 ft 0 kts 211°
2026-05-06 19:15 50.04265 8.56789 370 ft 1 kts 192°
2026-05-06 19:15 50.04245 8.56814 370 ft 8 kts 122°
2026-05-06 19:15 50.04281 8.56943 368 ft 24 kts 61°
2026-05-06 19:15 50.04353 8.57219 367 ft 31 kts 70°
2026-05-06 19:16 50.04420 8.57512 368 ft 26 kts 70°
2026-05-06 19:16 50.04482 8.57777 373 ft 26 kts 69°
2026-05-06 19:16 50.04542 8.58021 371 ft 23 kts 69°
2026-05-06 19:16 50.04599 8.58255 374 ft 23 kts 69°
2026-05-06 19:17 50.04639 8.58421 375 ft 13 kts 70°
2026-05-06 19:17 50.04642 8.58525 378 ft 7 kts 115°
2026-05-06 19:17 50.04619 8.58563 379 ft 0 kts 144°
2026-05-06 19:18 50.04547 8.58611 379 ft 15 kts 171°
2026-05-06 19:18 50.04476 8.58532 380 ft 0 kts 244°
2026-05-06 19:18 50.04461 8.58483 378 ft 19 kts 246°
2026-05-06 19:19 50.04342 8.57994 372 ft 88 kts 250°
2026-05-06 19:19 50.04059 8.56755 366 ft 150 kts 251°
2026-05-06 19:19 50.03653 8.54959 465 ft 195 kts 249°
2026-05-06 19:19 50.03158 8.53094 1474 ft 180 kts 251°
2026-05-06 19:20 50.02734 8.51245 2314 ft 182 kts 260°
2026-05-06 19:20 50.02756 8.49217 2699 ft 200 kts 278°
2026-05-06 19:20 50.02924 8.46904 2987 ft 230 kts 276°
2026-05-06 19:20 50.03046 8.44370 3669 ft 238 kts 268°
2026-05-06 19:21 50.02811 8.41779 4444 ft 247 kts 258°
2026-05-06 19:21 50.02458 8.39132 4950 ft 252 kts 258°
2026-05-06 19:21 50.02102 8.36407 4980 ft 261 kts 258°
2026-05-06 19:21 50.01757 8.33639 4988 ft 258 kts 258°
2026-05-06 19:22 50.01425 8.30916 4983 ft 255 kts 259°
2026-05-06 19:22 50.01294 8.28218 5113 ft 251 kts 279°
2026-05-06 19:22 50.01896 8.25688 5852 ft 257 kts 292°
2026-05-06 19:22 50.02646 8.23121 6674 ft 264 kts 291°
2026-05-06 19:23 50.03406 8.20497 7595 ft 267 kts 292°
2026-05-06 19:23 50.04175 8.17848 8503 ft 270 kts 292°
2026-05-06 19:23 50.04951 8.15181 9399 ft 274 kts 292°
2026-05-06 19:23 50.05749 8.12460 10184 ft 280 kts 294°
2026-05-06 19:24 50.06823 8.09782 10525 ft 306 kts 304°
2026-05-06 19:24 50.08218 8.07067 10733 ft 336 kts 308°
2026-05-06 19:24 50.09771 8.04191 11199 ft 356 kts 308°
2026-05-06 19:24 50.11382 8.01195 12049 ft 365 kts 308°
2026-05-06 19:25 50.13017 7.98109 12784 ft 372 kts 307°
2026-05-06 19:25 50.14667 7.94948 13692 ft 379 kts 307°
2026-05-06 19:25 50.16326 7.91735 14773 ft 381 kts 307°
2026-05-06 19:25 50.17992 7.88490 15858 ft 384 kts 307°
2026-05-06 19:26 50.19670 7.85209 16846 ft 390 kts 307°
2026-05-06 19:26 50.21371 7.81880 17846 ft 395 kts 307°
2026-05-06 19:26 50.23088 7.78516 18813 ft 398 kts 307°
2026-05-06 19:26 50.24849 7.75158 19598 ft 402 kts 311°
2026-05-06 19:27 50.27073 7.72401 19856 ft 416 kts 330°
2026-05-06 19:27 50.29757 7.70676 19867 ft 417 kts 338°
2026-05-06 19:27 50.32455 7.69030 19858 ft 415 kts 335°
2026-05-06 19:27 50.35109 7.67254 19967 ft 417 kts 334°
2026-05-06 19:28 50.37785 7.65402 20745 ft 422 kts 334°
2026-05-06 19:28 50.40476 7.63539 21680 ft 425 kts 334°
2026-05-06 19:28 50.43193 7.61663 22519 ft 429 kts 334°
2026-05-06 19:28 50.45949 7.59764 23309 ft 435 kts 334°
2026-05-06 19:29 50.48745 7.57838 23947 ft 441 kts 334°
2026-05-06 19:29 50.51572 7.55888 24554 ft 447 kts 334°
2026-05-06 19:29 50.54436 7.53909 25191 ft 452 kts 334°
2026-05-06 19:29 50.57288 7.51773 25757 ft 456 kts 329°
2026-05-06 19:30 50.60008 7.49143 25863 ft 461 kts 324°
2026-05-06 19:30 50.62638 7.46275 25881 ft 458 kts 323°
2026-05-06 19:30 50.65235 7.43411 25885 ft 454 kts 324°
2026-05-06 19:30 50.67847 7.40630 25876 ft 452 kts 325°
2026-05-06 19:31 50.70482 7.37910 25883 ft 453 kts 326°
2026-05-06 19:31 50.73065 7.35210 25882 ft 448 kts 322°
2026-05-06 19:31 50.76723 7.27476 25897 ft 445 kts 294°
2026-05-06 19:32 50.78053 7.23028 25895 ft 451 kts 295°
2026-05-06 19:32 50.79429 7.18575 25887 ft 451 kts 294°
2026-05-06 19:32 50.80773 7.14084 26060 ft 453 kts 294°
2026-05-06 19:32 50.82102 7.09543 26704 ft 456 kts 293°
2026-05-06 19:33 50.83432 7.04969 27399 ft 458 kts 293°
2026-05-06 19:33 50.84771 7.00365 27948 ft 463 kts 294°
2026-05-06 19:33 50.86129 6.95704 28461 ft 469 kts 293°
2026-05-06 19:33 50.87500 6.91004 28997 ft 473 kts 293°
2026-05-06 19:34 50.88881 6.86268 29548 ft 476 kts 293°
2026-05-06 19:34 50.90275 6.81489 30048 ft 479 kts 294°
2026-05-06 19:34 50.91677 6.76673 30496 ft 481 kts 293°
2026-05-06 19:34 50.93075 6.71866 31055 ft 479 kts 293°
2026-05-06 19:35 50.93994 6.68697 31497 ft 477 kts 293°
2026-05-06 19:35 50.95375 6.63932 32120 ft 474 kts 293°
2026-05-06 19:35 50.97190 6.57649 32885 ft 472 kts 293°
2026-05-06 19:35 50.98553 6.52921 33448 ft 471 kts 293°
2026-05-06 19:36 50.99911 6.48197 33961 ft 470 kts 293°
2026-05-06 19:36 51.01266 6.43475 34370 ft 469 kts 293°
2026-05-06 19:36 51.02618 6.38756 34747 ft 470 kts 292°
2026-05-06 19:36 51.03515 6.35616 34976 ft 470 kts 292°
2026-05-06 19:37 51.04881 6.30832 35358 ft 470 kts 292°
2026-05-06 19:37 51.06213 6.26158 35731 ft 470 kts 292°
2026-05-06 19:37 51.07578 6.21354 35941 ft 473 kts 292°
2026-05-06 19:37 51.08919 6.16626 35908 ft 475 kts 292°
2026-05-06 19:38 51.11617 6.07095 35902 ft 468 kts 292°
2026-05-06 19:38 51.14275 5.97663 35908 ft 467 kts 292°
2026-05-06 19:39 51.16924 5.88225 35916 ft 467 kts 292°
2026-05-06 19:39 51.19545 5.78755 35926 ft 467 kts 291°
2026-05-06 19:40 51.22065 5.69204 35928 ft 467 kts 291°
2026-05-06 19:40 51.24564 5.59623 35922 ft 467 kts 291°
2026-05-06 19:41 51.27062 5.50049 35926 ft 468 kts 291°
2026-05-06 19:41 51.29565 5.40457 35926 ft 467 kts 291°
2026-05-06 19:42 51.32058 5.30867 35930 ft 467 kts 291°
2026-05-06 19:42 51.34544 5.21264 35944 ft 467 kts 291°
2026-05-06 19:43 51.37020 5.11658 35934 ft 467 kts 291°
2026-05-06 19:43 51.39467 5.02120 35935 ft 466 kts 291°
2026-05-06 19:44 51.41924 4.92504 35942 ft 466 kts 291°
2026-05-06 19:44 51.44374 4.82878 35938 ft 466 kts 291°
2026-05-06 19:45 51.46811 4.73255 35947 ft 466 kts 291°
2026-05-06 19:45 51.49242 4.63621 35950 ft 465 kts 291°
2026-05-06 19:46 51.51662 4.53986 35934 ft 465 kts 291°
2026-05-06 19:46 51.54069 4.44360 35934 ft 464 kts 291°
2026-05-06 19:47 51.56450 4.34797 35940 ft 464 kts 291°
2026-05-06 19:47 51.58825 4.25221 35926 ft 456 kts 290°
2026-05-06 19:48 51.61177 4.15692 35956 ft 463 kts 290°
2026-05-06 19:48 51.63559 4.06000 35950 ft 467 kts 290°
2026-05-06 19:49 51.65940 3.96269 35951 ft 466 kts 290°
2026-05-06 19:49 51.68308 3.86551 35949 ft 466 kts 290°
2026-05-06 19:50 51.70663 3.76841 35950 ft 464 kts 290°
2026-05-06 19:50 51.73001 3.67160 35947 ft 463 kts 290°
2026-05-06 19:51 51.75332 3.57466 35949 ft 462 kts 290°
2026-05-06 19:51 51.77645 3.47806 35964 ft 460 kts 290°
2026-05-06 19:52 51.79939 3.38171 35961 ft 460 kts 290°
2026-05-06 19:52 51.82228 3.28530 35968 ft 457 kts 290°
2026-05-06 19:53 51.84112 3.18831 35980 ft 453 kts 278°
2026-05-06 19:53 51.84450 3.08717 35973 ft 452 kts 265°
2026-05-06 19:54 51.83758 2.98545 35980 ft 458 kts 263°
2026-05-06 19:54 51.83039 2.88359 35976 ft 456 kts 264°
2026-05-06 19:55 51.82361 2.78153 35981 ft 455 kts 264°
2026-05-06 19:55 51.81687 2.67982 35981 ft 456 kts 264°
2026-05-06 19:56 51.80991 2.57776 35340 ft 466 kts 263°
2026-05-06 19:56 51.80629 2.52563 34877 ft 463 kts 263°
2026-05-06 19:56 51.80270 2.47416 34323 ft 458 kts 263°
2026-05-06 19:57 51.79919 2.42409 33774 ft 453 kts 263°
2026-05-06 19:57 51.79560 2.37304 33183 ft 449 kts 263°
2026-05-06 19:57 51.79212 2.32369 32659 ft 447 kts 263°
2026-05-06 19:57 51.78858 2.27389 32140 ft 446 kts 263°
2026-05-06 19:58 51.78503 2.22434 31583 ft 444 kts 264°
2026-05-06 19:58 51.78177 2.17468 30777 ft 445 kts 264°
2026-05-06 19:58 51.77885 2.12485 30043 ft 445 kts 265°
2026-05-06 19:58 51.77603 2.07507 29267 ft 444 kts 265°
2026-05-06 19:59 51.77320 2.02534 28679 ft 444 kts 265°
2026-05-06 19:59 51.77031 1.97563 28072 ft 445 kts 264°
2026-05-06 19:59 51.76738 1.92624 27642 ft 441 kts 264°
2026-05-06 19:59 51.76440 1.87688 27099 ft 441 kts 264°
2026-05-06 20:00 51.76140 1.82773 26632 ft 439 kts 264°
2026-05-06 20:00 51.75840 1.77896 26227 ft 435 kts 264°
2026-05-06 20:00 51.75540 1.73050 26008 ft 432 kts 264°
2026-05-06 20:00 51.75242 1.68245 26017 ft 431 kts 264°
2026-05-06 20:01 51.74940 1.63414 26012 ft 433 kts 264°
2026-05-06 20:01 51.74634 1.58573 26007 ft 434 kts 264°
2026-05-06 20:01 51.74322 1.53730 26001 ft 434 kts 264°
2026-05-06 20:01 51.74008 1.48898 25999 ft 433 kts 264°
2026-05-06 20:02 51.73692 1.44063 25892 ft 430 kts 264°
2026-05-06 20:02 51.73379 1.39294 25388 ft 426 kts 264°
2026-05-06 20:02 51.73067 1.34562 24783 ft 423 kts 264°
2026-05-06 20:02 51.72759 1.29916 24153 ft 421 kts 264°
2026-05-06 20:03 51.72446 1.25225 23420 ft 420 kts 264°
2026-05-06 20:03 51.72139 1.20649 22578 ft 402 kts 264°
2026-05-06 20:03 51.71841 1.16240 21752 ft 389 kts 264°
2026-05-06 20:03 51.71550 1.11953 20970 ft 385 kts 264°
2026-05-06 20:04 51.71254 1.07610 20235 ft 393 kts 264°
2026-05-06 20:04 51.70953 1.03202 19499 ft 396 kts 264°
2026-05-06 20:04 51.70648 0.98777 18773 ft 397 kts 264°
2026-05-06 20:04 51.70340 0.94349 18031 ft 398 kts 264°
2026-05-06 20:05 51.70032 0.89917 17238 ft 398 kts 264°
2026-05-06 20:05 51.69723 0.85477 16461 ft 399 kts 264°
2026-05-06 20:05 51.69412 0.81037 15694 ft 398 kts 264°
2026-05-06 20:05 51.69102 0.76613 14948 ft 398 kts 264°
2026-05-06 20:06 51.68795 0.72276 14175 ft 374 kts 264°
2026-05-06 20:06 51.68507 0.68253 13419 ft 351 kts 264°
2026-05-06 20:06 51.68238 0.64491 12931 ft 325 kts 264°
2026-05-06 20:06 51.67987 0.61001 12448 ft 304 kts 265°
2026-05-06 20:07 51.67750 0.57697 11827 ft 291 kts 265°
2026-05-06 20:07 51.67519 0.54495 11114 ft 284 kts 264°
2026-05-06 20:07 51.67291 0.51349 10349 ft 281 kts 264°
2026-05-06 20:07 51.67064 0.48234 9517 ft 279 kts 264°
2026-05-06 20:08 51.66839 0.45150 8709 ft 275 kts 264°
2026-05-06 20:08 51.66614 0.42082 8330 ft 277 kts 264°
2026-05-06 20:08 51.66383 0.38962 8180 ft 286 kts 263°
2026-05-06 20:08 51.66147 0.35781 8015 ft 284 kts 263°
2026-05-06 20:09 51.65917 0.32675 8002 ft 275 kts 263°
2026-05-06 20:09 51.65691 0.29644 8001 ft 273 kts 263°
2026-05-06 20:09 51.65466 0.26626 8020 ft 276 kts 263°
2026-05-06 20:09 51.65235 0.23534 8027 ft 279 kts 263°
2026-05-06 20:10 51.65001 0.20438 8005 ft 278 kts 263°
2026-05-06 20:10 51.64768 0.17352 8014 ft 276 kts 263°
2026-05-06 20:10 51.64541 0.14293 8005 ft 275 kts 264°
2026-05-06 20:10 51.64342 0.11235 8014 ft 274 kts 265°
2026-05-06 20:11 51.64190 0.08182 8018 ft 274 kts 266°
2026-05-06 20:11 51.64044 0.05115 8025 ft 275 kts 266°
2026-05-06 20:11 51.63897 0.02032 8022 ft 277 kts 266°
2026-05-06 20:11 51.63751 -0.01058 8043 ft 278 kts 266°
2026-05-06 20:12 51.63572 -0.04153 8040 ft 278 kts 266°
2026-05-06 20:12 51.63393 -0.07001 8035 ft 277 kts 265°
2026-05-06 20:12 51.63207 -0.10082 8049 ft 276 kts 265°
2026-05-06 20:12 51.63016 -0.13155 8038 ft 275 kts 266°
2026-05-06 20:13 51.62833 -0.16214 8053 ft 275 kts 266°
2026-05-06 20:13 51.62648 -0.19273 8052 ft 275 kts 266°
2026-05-06 20:13 51.62457 -0.22333 8023 ft 274 kts 265°
2026-05-06 20:13 51.62268 -0.25379 7897 ft 273 kts 266°
2026-05-06 20:14 51.62074 -0.28420 7767 ft 273 kts 266°
2026-05-06 20:14 51.61879 -0.31461 7617 ft 274 kts 265°
2026-05-06 20:14 51.61692 -0.34516 7465 ft 273 kts 265°
2026-05-06 20:14 51.61507 -0.37557 7323 ft 273 kts 265°
2026-05-06 20:15 51.61329 -0.40598 7192 ft 273 kts 266°
2026-05-06 20:15 51.61149 -0.43631 7108 ft 271 kts 266°
2026-05-06 20:15 51.60967 -0.46608 7060 ft 270 kts 265°
2026-05-06 20:15 51.60782 -0.49617 7023 ft 270 kts 266°
2026-05-06 20:16 51.60594 -0.52634 7017 ft 271 kts 266°
2026-05-06 20:16 51.60409 -0.55653 7018 ft 271 kts 266°
2026-05-06 20:16 51.60220 -0.58660 7016 ft 268 kts 263°
2026-05-06 20:16 51.59631 -0.61485 6924 ft 269 kts 243°
2026-05-06 20:17 51.58702 -0.64116 6643 ft 270 kts 241°
2026-05-06 20:17 51.57753 -0.66723 6308 ft 271 kts 241°
2026-05-06 20:17 51.56796 -0.69333 5979 ft 270 kts 241°
2026-05-06 20:17 51.55831 -0.71914 5686 ft 268 kts 240°
2026-05-06 20:18 51.54882 -0.74461 5491 ft 261 kts 240°
2026-05-06 20:18 51.53973 -0.76920 5408 ft 251 kts 240°
2026-05-06 20:18 51.53105 -0.79266 5332 ft 239 kts 241°
2026-05-06 20:18 51.52256 -0.81537 5097 ft 235 kts 240°
2026-05-06 20:19 51.51416 -0.83785 4784 ft 234 kts 241°
2026-05-06 20:19 51.50545 -0.85930 4627 ft 224 kts 229°
2026-05-06 20:19 51.49268 -0.87193 4480 ft 214 kts 193°
2026-05-06 20:19 51.47836 -0.87060 4249 ft 206 kts 156°
2026-05-06 20:20 51.46777 -0.85667 3959 ft 195 kts 117°
2026-05-06 20:20 51.46447 -0.83634 3648 ft 186 kts 89°
2026-05-06 20:20 51.46395 -0.81549 3325 ft 187 kts 90°
2026-05-06 20:20 51.46466 -0.79501 3054 ft 179 kts 79°
2026-05-06 20:21 51.46664 -0.77562 3028 ft 178 kts 78°
2026-05-06 20:21 51.46872 -0.75593 3012 ft 184 kts 78°
2026-05-06 20:21 51.47138 -0.73596 3006 ft 183 kts 73°
2026-05-06 20:21 51.47453 -0.71618 2983 ft 183 kts 74°
2026-05-06 20:22 51.47634 -0.69557 2720 ft 188 kts 83°
2026-05-06 20:22 51.47678 -0.67506 2459 ft 179 kts 86°
2026-05-06 20:22 51.47687 -0.65571 2213 ft 167 kts 86°
2026-05-06 20:22 51.47695 -0.63724 2015 ft 166 kts 86°
2026-05-06 20:23 51.47701 -0.61866 1784 ft 167 kts 86°
2026-05-06 20:23 51.47706 -0.60034 1544 ft 161 kts 86°
2026-05-06 20:23 51.47713 -0.58261 1342 ft 159 kts 86°
2026-05-06 20:23 51.47720 -0.56480 1126 ft 160 kts 86°
2026-05-06 20:24 51.47724 -0.55304 965 ft 158 kts 86°
2026-05-06 20:24 51.47730 -0.53593 766 ft 151 kts 86°
2026-05-06 20:24 51.47735 -0.51963 558 ft 144 kts 88°
2026-05-06 20:24 51.47739 -0.50374 354 ft 142 kts 88°
2026-05-06 20:25 51.47750 -0.48799 203 ft 142 kts 87°
2026-05-06 20:25 51.47752 -0.47204 119 ft 143 kts 87°
2026-05-06 20:25 51.47745 -0.45781 90 ft 100 kts 76°
2026-05-06 20:25 51.47763 -0.45080 94 ft 30 kts 94°
2026-05-06 20:26 51.47679 -0.44827 97 ft 17 kts 146°
2026-05-06 20:26 51.47651 -0.44801 95 ft 0 kts 149°
2026-05-06 20:26 51.47649 -0.44800 94 ft 1 kts 150°
2026-05-06 20:26 51.47636 -0.44786 96 ft 6 kts 144°
2026-05-06 20:27 51.47591 -0.44732 95 ft 10 kts 173°
2026-05-06 20:27 51.47534 -0.44770 93 ft 0 kts 230°
2026-05-06 20:27 51.47520 -0.44799 95 ft 16 kts 232°
2026-05-06 20:27 51.47502 -0.44855 95 ft 10 kts 259°
2026-05-06 20:28 51.47512 -0.45031 94 ft 17 kts 270°
2026-05-06 20:28 51.47514 -0.45229 94 ft 18 kts 271°
2026-05-06 20:28 51.47515 -0.45422 93 ft 16 kts 271°
2026-05-06 20:28 51.47517 -0.45600 91 ft 17 kts 271°
2026-05-06 20:29 51.47519 -0.45792 94 ft 19 kts 269°
2026-05-06 20:29 51.47518 -0.46118 91 ft 36 kts 270°
2026-05-06 20:29 51.47518 -0.46515 91 ft 31 kts 270°
2026-05-06 20:29 51.47507 -0.46692 94 ft 11 kts 257°
2026-05-06 20:30 51.47493 -0.46863 91 ft 3 kts 268°
2026-05-06 20:30 51.47493 -0.47093 91 ft 19 kts 270°
2026-05-06 20:30 51.47493 -0.47308 91 ft 20 kts 270°
2026-05-06 20:31 51.47493 -0.47531 93 ft 20 kts 270°
2026-05-06 20:31 51.47493 -0.47760 93 ft 21 kts 270°
2026-05-06 20:31 51.47494 -0.47996 94 ft 21 kts 270°
2026-05-06 20:31 51.47496 -0.48159 94 ft 8 kts 271°
2026-05-06 20:32 51.47496 -0.48174 94 ft 5 kts 271°
2026-05-06 20:32 51.47494 -0.48245 95 ft 5 kts 265°
2026-05-06 20:32 51.47475 -0.48313 96 ft 0 kts 226°
2026-05-06 20:32 51.47421 -0.48351 94 ft 18 kts 189°
2026-05-06 20:33 51.47323 -0.48356 94 ft 11 kts 179°
2026-05-06 20:33 51.47261 -0.48319 94 ft 0 kts 108°
2026-05-06 20:33 51.47255 -0.48288 94 ft 5 kts 107°
2026-05-06 20:33 51.47251 -0.48248 94 ft 0 kts 91°
2026-05-06 20:34 51.47251 -0.48244 94 ft 2 kts 95°
2026-05-06 20:34 51.47250 -0.48232 94 ft 0 kts 94°